Leonardtown, MD

1:57 PM EDT on July 28, 2017 (GMT -0400)
Leonardtown

Weather History for K2W6 - March, 2014

Change the Weather History Date:

Monday, March 3, 2014

  Actual Average (KNHK) Record (KNHK)
Temperature  
Mean Temperature 26 °F -  
Max Temperature 35 °F 48 °F 113 °F (1997)
Min Temperature 17 °F 32 °F 10 °F (2009)
Degree Days  
Heating Degree Days 39    
Moisture  
Dew Point 19 °F    
Average Humidity 79    
Maximum Humidity 100    
Minimum Humidity 49    
Precipitation  
Precipitation 0.00 in - - ()
Sea Level Pressure  
Sea Level Pressure 30.19 in    
Wind  
Wind Speed 2 mph (North)    
Max Wind Speed 8 mph    
Max Gust Speed -    
Visibility 5 miles    
Events      
Averages and records for this station are not official NWS values.
T = Trace of Precipitation, MM = Missing Value Source: NWS Daily Summary

Daily Weather History Graph

Daily Weather History Graph

Search for Another Location

Airport or City:

Trip Planner

Search our weather history database for the weather conditions in past years. The results will help you decide how hot, cold, wet, or windy it might be!

Date:

Astronomy

Mar. 03, 2014 Rise Set
Actual Time 6:35 AM EST 6:01 PM EST
Civil Twilight 6:08 AM EST 6:27 PM EST
Nautical Twilight 5:38 AM EST 6:58 PM EST
Astronomical Twilight 5:07 AM EST 7:29 PM EST
Moon 7:44 AM EST (3/3) 8:59 PM EST (3/3)
Length of Visible Light 12h 19m
Length of Day
11h 26m
Waxing Crescent, 8% of the Moon is Illuminated
Mar 3
Waxing Crescent
Mar 8
First Quarter
Mar 16
Full
Mar 23
Last Quarter
Mar 30
New

Hourly Weather History & Observations

Time (EST) Temp. Windchill Dew Point Humidity Pressure Visibility Wind Dir Wind Speed Gust Speed Precip Events Conditions
12:10 AM 35.6 °F 32.8 °F 33.8 °F 93% 29.99 in 3.0 mi North 3.5 mph - N/A   Overcast
12:30 AM 35.6 °F 29.9 °F 33.8 °F 93% 29.99 in 3.0 mi North 6.9 mph - N/A   Overcast
12:50 AM 35.6 °F 32.8 °F 33.8 °F 93% 29.99 in 2.5 mi North 3.5 mph - N/A   Overcast
1:10 AM 35.6 °F 29.9 °F 33.8 °F 93% 30.00 in 2.5 mi North 6.9 mph - N/A   Overcast
1:30 AM 35.6 °F 29.9 °F 32.0 °F 87% 30.00 in 4.0 mi North 6.9 mph - N/A   Overcast
1:50 AM 33.8 °F 27.7 °F 32.0 °F 93% 30.00 in 5.0 mi North 6.9 mph - N/A   Overcast
2:10 AM 33.8 °F 28.6 °F 32.0 °F 93% 29.99 in 5.0 mi NNE 5.8 mph - N/A   Overcast
2:30 AM 33.8 °F 30.8 °F 32.0 °F 93% 29.99 in 4.0 mi North 3.5 mph - N/A   Overcast
2:50 AM 33.8 °F 28.6 °F 32.0 °F 93% 30.00 in 3.0 mi North 5.8 mph - N/A   Overcast
3:10 AM 32.0 °F 25.6 °F 32.0 °F 100% 29.99 in 4.0 mi North 6.9 mph - N/A   Overcast
3:30 AM 32.0 °F 27.5 °F 32.0 °F 100% 29.99 in 5.0 mi North 4.6 mph - N/A   Overcast
3:50 AM 32.0 °F 26.4 °F 32.0 °F 100% 29.99 in 5.0 mi NNE 5.8 mph - N/A   Overcast
4:11 AM 32.0 °F 25.6 °F 30.2 °F 93% 30.02 in 4.0 mi North 6.9 mph - N/A   Overcast
4:31 AM 32.0 °F 24.8 °F 30.2 °F 93% 30.02 in 5.0 mi North 8.1 mph - N/A   Overcast
4:51 AM 32.0 °F 24.8 °F 30.2 °F 93% 30.05 in 2.5 mi North 8.1 mph - N/A   Overcast
5:11 AM 32.0 °F - 30.2 °F 93% 30.02 in 3.0 mi Calm Calm - N/A   Overcast
5:31 AM 32.0 °F - 30.2 °F 93% 30.06 in 4.0 mi Calm Calm - N/A   Overcast
5:51 AM 32.0 °F - 28.4 °F 87% 30.06 in 4.0 mi Calm Calm - N/A   Overcast
6:11 AM 32.0 °F - 28.4 °F 87% 30.07 in 2.5 mi Calm Calm - N/A   Overcast
6:31 AM 30.2 °F - 28.4 °F 93% 30.08 in 2.0 mi Calm Calm - N/A   Overcast
6:51 AM 30.2 °F - 28.4 °F 93% 30.10 in 3.0 mi Calm Calm - N/A   Overcast
7:11 AM 30.2 °F - 26.6 °F 86% 30.12 in 1.5 mi Calm Calm - N/A   Overcast
7:31 AM 28.4 °F - 26.6 °F 93% 30.13 in 0.5 mi Calm Calm - N/A   Overcast
7:51 AM 28.4 °F - 24.8 °F 86% 30.15 in 0.5 mi Calm Calm - N/A   Overcast
8:11 AM 28.4 °F - 24.8 °F 86% 30.17 in 0.5 mi Calm Calm - N/A   Overcast
8:31 AM 26.6 °F - 24.8 °F 93% 30.17 in 0.5 mi Calm Calm - N/A   Overcast
8:51 AM 26.6 °F - 23.0 °F 86% 30.17 in 0.2 mi Calm Calm - N/A   Overcast
9:11 AM 24.8 °F - 21.2 °F 86% 30.19 in 0.5 mi Calm Calm - N/A   Overcast
9:31 AM 23.0 °F - 21.2 °F 93% 30.19 in 0.5 mi Calm Calm - N/A   Overcast
9:51 AM 23.0 °F - 21.2 °F 93% 30.19 in 0.2 mi Calm Calm - N/A   Overcast
10:11 AM 23.0 °F - 21.2 °F 93% 30.19 in 0.5 mi Calm Calm - N/A   Overcast
10:31 AM 23.0 °F - 19.4 °F 86% 30.22 in 0.2 mi Calm Calm - N/A   Overcast
10:51 AM 21.2 °F - 17.6 °F 86% 30.21 in 0.5 mi Calm Calm - N/A   Overcast
11:11 AM 21.2 °F - 17.6 °F 86% 30.22 in 1.0 mi Calm Calm - N/A   Overcast
11:31 AM 21.2 °F - 17.6 °F 86% 30.22 in 2.5 mi Calm Calm - N/A   Overcast
11:51 AM 21.2 °F - 17.6 °F 86% 30.21 in 1.5 mi Calm Calm - N/A   Overcast
12:11 PM 21.2 °F - 17.6 °F 86% 30.23 in 1.8 mi Calm Calm - N/A   Overcast
12:32 PM 21.2 °F - 17.6 °F 86% 30.22 in 1.5 mi Calm Calm - N/A   Overcast
12:52 PM 21.2 °F - 17.6 °F 86% 30.21 in 0.8 mi Calm Calm - N/A   Overcast
1:12 PM 19.4 °F - 15.8 °F 86% 30.22 in 1.2 mi Calm Calm - N/A   Overcast
1:32 PM 19.4 °F - 15.8 °F 86% 30.20 in 1.5 mi Calm Calm - N/A   Overcast
1:52 PM 19.4 °F - 15.8 °F 86% 30.20 in 1.2 mi Calm Calm - N/A   Overcast
2:12 PM 21.2 °F - 17.6 °F 86% 30.21 in 0.8 mi Calm Calm - N/A   Overcast
2:32 PM 19.4 °F - 15.8 °F 86% 30.21 in 1.5 mi Calm Calm - N/A   Overcast
2:52 PM 19.4 °F - 14.0 °F 80% 30.22 in 2.5 mi Calm Calm - N/A   Overcast
3:12 PM 19.4 °F - 14.0 °F 80% 30.22 in 1.5 mi Calm Calm - N/A   Overcast
3:32 PM 19.4 °F - 15.8 °F 86% 30.23 in 1.8 mi Calm Calm - N/A   Overcast
3:52 PM 19.4 °F - 14.0 °F 80% 30.24 in 3.0 mi Calm Calm - N/A   Overcast
4:12 PM 19.4 °F - 12.2 °F 74% 30.26 in 5.0 mi Calm Calm - N/A   Overcast
4:32 PM 19.4 °F - 12.2 °F 74% 30.26 in 10.0 mi Calm Calm - N/A   Overcast
4:52 PM 21.2 °F - 12.2 °F 68% 30.24 in 10.0 mi Calm Calm - N/A   Mostly Cloudy
5:12 PM 21.2 °F - 10.4 °F 63% 30.25 in 10.0 mi Calm Calm - N/A   Mostly Cloudy
5:32 PM 21.2 °F - 10.4 °F 63% 30.25 in 10.0 mi Calm Calm - N/A   Scattered Clouds
5:52 PM 21.2 °F - 8.6 °F 58% 30.27 in 10.0 mi Calm Calm - N/A   Scattered Clouds
6:12 PM 19.4 °F - 8.6 °F 63% 30.28 in 10.0 mi Calm Calm - N/A   Mostly Cloudy
6:32 PM 21.2 °F - 8.6 °F 58% 30.30 in 10.0 mi Calm Calm - N/A   Overcast
6:52 PM 19.4 °F - 6.8 °F 58% 30.31 in 10.0 mi Calm Calm - N/A   Mostly Cloudy
7:12 PM 19.4 °F - 5.0 °F 54% 30.32 in 10.0 mi Calm Calm - N/A   Clear
7:32 PM 19.4 °F - 5.0 °F 54% 30.33 in 10.0 mi Calm Calm - N/A   Clear
7:52 PM 19.4 °F - 5.0 °F 54% 30.34 in 10.0 mi Calm Calm - N/A   Clear
8:12 PM 19.4 °F - 6.8 °F 58% 30.33 in 10.0 mi Calm Calm - N/A   Clear
8:32 PM 19.4 °F - 6.8 °F 58% 30.34 in 10.0 mi Calm Calm - N/A   Clear
8:52 PM 19.4 °F - 5.0 °F 54% 30.35 in 10.0 mi Calm Calm - N/A   Clear
9:13 PM 19.4 °F - 5.0 °F 54% 30.35 in 10.0 mi Calm Calm - N/A   Clear
9:33 PM 19.4 °F - 5.0 °F 54% 30.35 in 10.0 mi Calm Calm - N/A   Clear
9:53 PM 19.4 °F - 3.2 °F 49% 30.35 in 10.0 mi Calm Calm - N/A   Clear
10:13 PM 17.6 °F - 5.0 °F 58% 30.35 in 10.0 mi Calm Calm - N/A   Clear
10:33 PM 17.6 °F - 5.0 °F 58% 30.36 in 10.0 mi Calm Calm - N/A   Clear
10:53 PM 17.6 °F - 3.2 °F 53% 30.36 in 10.0 mi Calm Calm - N/A   Clear
11:13 PM 17.6 °F - 3.2 °F 53% 30.35 in 10.0 mi Calm Calm - N/A   Clear
11:33 PM 17.6 °F - 5.0 °F 58% 30.35 in 10.0 mi Calm Calm - N/A   Clear
11:53 PM 17.6 °F - 5.0 °F 58% 30.34 in 10.0 mi Calm Calm - N/A   Clear